DRGN01 YAMB-YPLM

Flight info

Callsign DRGN01
Flight time 5h 28m
Altitude 40000
Route MESED DCT LIKTO DCT ROM T11 PULOL Q36 ANGAS V656 AYE T44 NONAX DCT NWN DCT PBO DCT LM
Aircraft A332/H-SADE1E2E3GHIJ3J5M1P2RWXY/LB2D1

Departure

Time 2026-05-05 06:52
Airport RAAF Base Amberley (YAMB)

Arrival

Time 2026-05-05 12:20
Airport Learmonth Airport (YPLM)
Time Latitude Longitude Altitude Speed Heading
2026-05-05 06:40 -27.62540 152.70242 117 ft 0 kts 339°
2026-05-05 06:49 -27.62539 152.70242 116 ft 1 kts 338°
2026-05-05 06:49 -27.62495 152.70245 118 ft 5 kts 37°
2026-05-05 06:49 -27.62463 152.70293 117 ft 10 kts 65°
2026-05-05 06:49 -27.62426 152.70378 115 ft 12 kts 54°
2026-05-05 06:50 -27.62372 152.70393 116 ft 7 kts 348°
2026-05-05 06:50 -27.62334 152.70383 119 ft 3 kts 345°
2026-05-05 06:50 -27.62295 152.70369 121 ft 10 kts 348°
2026-05-05 06:50 -27.62219 152.70410 120 ft 14 kts 63°
2026-05-05 06:51 -27.62202 152.70508 116 ft 9 kts 104°
2026-05-05 06:51 -27.62256 152.70563 114 ft 11 kts 149°
2026-05-05 06:51 -27.62306 152.70584 114 ft 9 kts 155°
2026-05-05 06:51 -27.62790 152.70799 119 ft 106 kts 158°
2026-05-05 06:52 -27.63732 152.71207 170 ft 173 kts 157°
2026-05-05 06:52 -27.64888 152.71709 843 ft 187 kts 157°
2026-05-05 06:52 -27.66097 152.72218 1841 ft 186 kts 156°
2026-05-05 06:52 -27.67280 152.72723 2559 ft 186 kts 158°
2026-05-05 06:53 -27.68552 152.73210 2996 ft 203 kts 171°
2026-05-05 06:53 -27.69985 152.72881 3392 ft 224 kts 211°
2026-05-05 06:53 -27.71061 152.71545 3818 ft 244 kts 247°
2026-05-05 06:53 -27.71254 152.69624 4276 ft 263 kts 283°
2026-05-05 06:54 -27.70765 152.68343 4650 ft 273 kts 304°
2026-05-05 06:54 -27.69136 152.66151 5725 ft 279 kts 311°
2026-05-05 06:54 -27.67838 152.64528 6584 ft 282 kts 310°
2026-05-05 06:54 -27.66525 152.62851 7380 ft 286 kts 310°
2026-05-05 06:55 -27.65220 152.61148 8180 ft 290 kts 310°
2026-05-05 06:55 -27.64357 152.60010 8696 ft 293 kts 310°
2026-05-05 06:55 -27.62603 152.57675 9761 ft 297 kts 310°
2026-05-05 06:55 -27.61265 152.55885 10554 ft 301 kts 310°
2026-05-05 06:56 -27.59884 152.54040 11059 ft 316 kts 310°
2026-05-05 06:56 -27.58427 152.52092 11418 ft 334 kts 310°
2026-05-05 06:56 -27.56905 152.50053 11759 ft 353 kts 310°
2026-05-05 06:56 -27.55279 152.47878 12279 ft 365 kts 310°
2026-05-05 06:57 -27.53660 152.45711 13122 ft 366 kts 309°
2026-05-05 06:57 -27.52037 152.43541 14022 ft 365 kts 309°
2026-05-05 06:57 -27.50424 152.41332 14844 ft 366 kts 307°
2026-05-05 06:57 -27.49034 152.38939 15685 ft 367 kts 300°
2026-05-05 06:58 -27.47910 152.36381 16502 ft 368 kts 294°
2026-05-05 06:58 -27.46986 152.33705 17302 ft 369 kts 292°
2026-05-05 06:58 -27.46084 152.30991 18110 ft 370 kts 292°
2026-05-05 06:58 -27.45188 152.28275 18697 ft 377 kts 292°
2026-05-05 06:59 -27.44575 152.26428 18962 ft 384 kts 292°
2026-05-05 06:59 -27.43314 152.22624 19807 ft 391 kts 291°
2026-05-05 06:59 -27.42367 152.19771 20548 ft 392 kts 291°
2026-05-05 06:59 -27.41416 152.16905 21266 ft 394 kts 291°
2026-05-05 07:00 -27.40789 152.15012 21715 ft 395 kts 291°
2026-05-05 07:00 -27.39497 152.11140 22598 ft 397 kts 291°
2026-05-05 07:00 -27.38853 152.09204 23003 ft 399 kts 291°
2026-05-05 07:00 -27.37880 152.06284 23587 ft 401 kts 291°
2026-05-05 07:01 -27.36581 152.02383 24456 ft 401 kts 291°
2026-05-05 07:01 -27.35600 151.99442 25020 ft 403 kts 291°
2026-05-05 07:01 -27.34622 151.96512 25568 ft 404 kts 291°
2026-05-05 07:01 -27.33636 151.93558 26101 ft 405 kts 292°
2026-05-05 07:02 -27.32975 151.91582 26456 ft 406 kts 292°
2026-05-05 07:02 -27.31988 151.88641 26964 ft 407 kts 292°
2026-05-05 07:02 -27.30997 151.85652 27438 ft 408 kts 291°
2026-05-05 07:02 -27.29788 151.81624 28014 ft 411 kts 291°
2026-05-05 07:03 -27.28879 151.78590 28444 ft 412 kts 290°
2026-05-05 07:03 -27.28266 151.76549 28751 ft 413 kts 291°
2026-05-05 07:03 -27.27346 151.73488 29364 ft 409 kts 291°
2026-05-05 07:03 -27.26156 151.69504 30261 ft 404 kts 291°
2026-05-05 07:04 -27.25561 151.67520 30613 ft 403 kts 291°
2026-05-05 07:04 -27.24371 151.63559 31311 ft 401 kts 292°
2026-05-05 07:04 -27.23787 151.61615 31683 ft 399 kts 292°
2026-05-05 07:04 -27.22607 151.57681 32361 ft 397 kts 292°
2026-05-05 07:05 -27.21735 151.54781 32870 ft 395 kts 292°
2026-05-05 07:05 -27.20862 151.51869 33399 ft 392 kts 292°
2026-05-05 07:05 -27.19991 151.48972 33893 ft 390 kts 292°
2026-05-05 07:05 -27.19125 151.46111 34403 ft 388 kts 292°
2026-05-05 07:06 -27.18263 151.43260 34926 ft 384 kts 292°
2026-05-05 07:06 -27.17412 151.40445 35473 ft 380 kts 292°
2026-05-05 07:06 -27.16857 151.38602 35785 ft 378 kts 292°
2026-05-05 07:06 -27.15732 151.34885 36285 ft 377 kts 292°
2026-05-05 07:07 -27.14900 151.32124 36652 ft 376 kts 292°
2026-05-05 07:07 -27.14053 151.29343 37049 ft 375 kts 292°
2026-05-05 07:07 -27.13215 151.26581 37446 ft 373 kts 292°
2026-05-05 07:07 -27.12383 151.23828 37828 ft 372 kts 292°
2026-05-05 07:08 -27.11562 151.21121 38158 ft 371 kts 292°
2026-05-05 07:08 -27.11004 151.19281 38385 ft 370 kts 292°
2026-05-05 07:08 -27.10182 151.16577 38705 ft 370 kts 292°
2026-05-05 07:08 -27.09062 151.12903 38978 ft 373 kts 292°
2026-05-05 07:09 -27.08226 151.10153 39159 ft 375 kts 292°
2026-05-05 07:09 -27.07381 151.07384 39340 ft 377 kts 292°
2026-05-05 07:09 -27.06544 151.04637 39531 ft 378 kts 291°
2026-05-05 07:09 -27.05694 151.01848 39703 ft 380 kts 291°
2026-05-05 07:10 -27.04833 150.99034 39875 ft 381 kts 292°
2026-05-05 07:10 -27.03975 150.96223 40056 ft 382 kts 291°
2026-05-05 07:10 -27.03113 150.93399 40069 ft 383 kts 292°
2026-05-05 07:11 -27.01392 150.87778 40077 ft 384 kts 292°
2026-05-05 07:11 -26.99659 150.82129 40080 ft 384 kts 291°
2026-05-05 07:12 -26.97924 150.76477 40077 ft 384 kts 292°
2026-05-05 07:12 -26.96193 150.70844 40078 ft 384 kts 292°
2026-05-05 07:13 -26.94736 150.66126 40079 ft 389 kts 292°
2026-05-05 07:13 -26.92670 150.59424 40075 ft 391 kts 291°
2026-05-05 07:14 -26.90889 150.53653 40076 ft 391 kts 291°
2026-05-05 07:14 -26.89109 150.47899 40077 ft 392 kts 292°
2026-05-05 07:15 -26.87341 150.42143 40077 ft 392 kts 291°
2026-05-05 07:15 -26.85894 150.36272 40078 ft 394 kts 287°
2026-05-05 07:16 -26.84713 150.30269 40078 ft 394 kts 287°
2026-05-05 07:16 -26.83736 150.25291 40072 ft 394 kts 287°
2026-05-05 07:17 -26.82567 150.19333 40069 ft 393 kts 287°
2026-05-05 07:17 -26.81212 150.12387 40071 ft 394 kts 287°
2026-05-05 07:18 -26.80233 150.07410 40073 ft 394 kts 287°
2026-05-05 07:18 -26.79063 150.01422 40072 ft 395 kts 287°
2026-05-05 07:19 -26.77885 149.95441 40069 ft 394 kts 287°
2026-05-05 07:19 -26.76716 149.89500 40074 ft 394 kts 287°
2026-05-05 07:20 -26.75337 149.82510 40074 ft 395 kts 287°
2026-05-05 07:20 -26.74353 149.77541 40069 ft 395 kts 287°
2026-05-05 07:21 -26.73166 149.71553 40068 ft 395 kts 287°
2026-05-05 07:21 -26.71971 149.65549 40073 ft 395 kts 287°
2026-05-05 07:22 -26.70579 149.58554 40076 ft 396 kts 287°
2026-05-05 07:22 -26.69390 149.52600 40077 ft 396 kts 287°
2026-05-05 07:23 -26.68186 149.46605 40075 ft 395 kts 287°
2026-05-05 07:23 -26.66985 149.40614 40075 ft 396 kts 287°
2026-05-05 07:24 -26.65776 149.34602 40084 ft 397 kts 287°
2026-05-05 07:24 -26.64773 149.29637 40079 ft 396 kts 287°
2026-05-05 07:25 -26.63562 149.23636 40080 ft 396 kts 287°
2026-05-05 07:25 -26.62150 149.16661 40080 ft 396 kts 288°
2026-05-05 07:26 -26.60931 149.10658 40082 ft 395 kts 287°
2026-05-05 07:26 -26.59718 149.04691 40083 ft 396 kts 288°
2026-05-05 07:27 -26.58495 148.98680 40083 ft 396 kts 288°
2026-05-05 07:27 -26.57270 148.92685 40082 ft 397 kts 287°
2026-05-05 07:28 -26.56254 148.87721 40082 ft 397 kts 287°
2026-05-05 07:28 -26.54819 148.80716 40080 ft 398 kts 287°
2026-05-05 07:29 -26.53850 148.74631 40086 ft 402 kts 284°
2026-05-05 07:29 -26.53039 148.68484 40085 ft 401 kts 283°
2026-05-05 07:30 -26.52229 148.62326 40088 ft 402 kts 283°
2026-05-05 07:30 -26.51012 148.53076 40095 ft 403 kts 283°
2026-05-05 07:31 -26.50196 148.46898 40090 ft 403 kts 284°
2026-05-05 07:31 -26.49381 148.40718 40097 ft 404 kts 283°
2026-05-05 07:32 -26.48564 148.34570 40100 ft 403 kts 284°
2026-05-05 07:32 -26.47743 148.28397 40100 ft 403 kts 284°
2026-05-05 07:33 -26.47053 148.23224 40099 ft 403 kts 284°
2026-05-05 07:33 -26.46096 148.16055 40096 ft 404 kts 284°
2026-05-05 07:34 -26.45262 148.09843 40096 ft 404 kts 284°
2026-05-05 07:34 -26.44567 148.04697 40095 ft 403 kts 283°
2026-05-05 07:35 -26.43597 147.97510 40093 ft 404 kts 284°
2026-05-05 07:35 -26.42755 147.91298 40098 ft 405 kts 284°
2026-05-05 07:36 -26.41913 147.85117 40096 ft 405 kts 284°
2026-05-05 07:36 -26.41067 147.78903 40097 ft 405 kts 283°
2026-05-05 07:37 -26.40363 147.73759 40099 ft 406 kts 283°
2026-05-05 07:37 -26.39362 147.66483 40099 ft 407 kts 283°
2026-05-05 07:38 -26.38649 147.61299 40101 ft 407 kts 283°
2026-05-05 07:38 -26.37647 147.54056 40101 ft 407 kts 283°
2026-05-05 07:39 -26.36785 147.47836 40104 ft 407 kts 284°
2026-05-05 07:39 -26.35923 147.41635 40106 ft 407 kts 283°
2026-05-05 07:40 -26.35050 147.35400 40109 ft 407 kts 284°
2026-05-05 07:40 -26.34177 147.29190 40108 ft 407 kts 283°
2026-05-05 07:41 -26.33304 147.22971 40111 ft 407 kts 284°
2026-05-05 07:41 -26.32570 147.17764 40110 ft 407 kts 284°
2026-05-05 07:42 -26.31542 147.10490 40110 ft 408 kts 283°
2026-05-05 07:42 -26.30658 147.04263 40111 ft 409 kts 283°
2026-05-05 07:43 -26.29772 146.98039 40107 ft 409 kts 284°
2026-05-05 07:43 -26.28876 146.91788 40108 ft 410 kts 283°
2026-05-05 07:44 -26.28130 146.86575 40108 ft 410 kts 283°
2026-05-05 07:44 -26.27085 146.79288 40108 ft 410 kts 283°
2026-05-05 07:45 -26.26332 146.74060 40106 ft 410 kts 283°
2026-05-05 07:45 -26.25277 146.66777 40104 ft 409 kts 283°
2026-05-05 07:46 -26.24373 146.60544 40108 ft 410 kts 283°
2026-05-05 07:46 -26.23468 146.54324 40106 ft 410 kts 283°
2026-05-05 07:47 -26.22553 146.48067 40102 ft 410 kts 283°
2026-05-05 07:47 -26.21792 146.42868 40100 ft 410 kts 283°
2026-05-05 07:48 -26.20876 146.36638 40105 ft 409 kts 283°
2026-05-05 07:48 -26.19797 146.29315 40106 ft 409 kts 284°
2026-05-05 07:49 -26.19034 146.24158 40098 ft 410 kts 284°
2026-05-05 07:49 -26.17955 146.16869 40095 ft 410 kts 283°
2026-05-05 07:50 -26.17024 146.10605 40090 ft 410 kts 283°
2026-05-05 07:50 -26.16097 146.04395 40087 ft 410 kts 284°
2026-05-05 07:51 -26.15161 145.98146 40086 ft 411 kts 284°
2026-05-05 07:51 -26.14220 145.91885 40087 ft 410 kts 283°
2026-05-05 07:52 -26.13436 145.86679 40086 ft 411 kts 284°
2026-05-05 07:52 -26.12491 145.80420 40087 ft 412 kts 283°
2026-05-05 07:53 -26.11387 145.73114 40092 ft 412 kts 284°
2026-05-05 07:53 -26.10435 145.66858 40091 ft 413 kts 283°
2026-05-05 07:54 -26.09634 145.61610 40092 ft 412 kts 283°
2026-05-05 07:54 -26.08518 145.54301 40094 ft 412 kts 284°
2026-05-05 07:55 -26.07715 145.49065 40098 ft 413 kts 283°
2026-05-05 07:55 -26.06587 145.41722 40096 ft 414 kts 283°
2026-05-05 07:56 -26.05777 145.36475 40097 ft 414 kts 283°
2026-05-05 07:56 -26.04644 145.29144 40101 ft 414 kts 284°
2026-05-05 07:57 -26.03665 145.22830 40102 ft 415 kts 284°
2026-05-05 07:57 -26.02685 145.16531 40104 ft 416 kts 284°
2026-05-05 07:58 -26.01861 145.11258 40105 ft 416 kts 284°
2026-05-05 07:58 -26.00704 145.03862 40104 ft 416 kts 283°
2026-05-05 07:59 -25.99885 144.98636 40104 ft 416 kts 284°
2026-05-05 07:59 -25.98888 144.92305 40105 ft 416 kts 283°
2026-05-05 08:00 -25.97720 144.84918 40101 ft 416 kts 283°
2026-05-05 08:00 -25.96720 144.78592 40102 ft 416 kts 283°
2026-05-05 08:01 -25.95891 144.73366 40099 ft 416 kts 283°
2026-05-05 08:01 -25.94887 144.67059 40098 ft 415 kts 283°
2026-05-05 08:02 -25.93710 144.59686 40098 ft 416 kts 283°
2026-05-05 08:02 -25.92871 144.54440 40096 ft 417 kts 283°
2026-05-05 08:03 -25.91859 144.48134 40096 ft 416 kts 283°
2026-05-05 08:03 -25.90677 144.40776 40097 ft 417 kts 283°
2026-05-05 08:04 -25.89650 144.34412 40102 ft 417 kts 284°
2026-05-05 08:04 -25.88621 144.28107 40098 ft 418 kts 284°
2026-05-05 08:05 -25.87758 144.22841 40098 ft 418 kts 283°
2026-05-05 08:05 -25.86720 144.16502 40095 ft 417 kts 283°
2026-05-05 08:06 -25.85510 144.09126 40095 ft 417 kts 284°
2026-05-05 08:06 -25.84471 144.02824 40114 ft 417 kts 283°
2026-05-05 08:07 -25.83599 143.97528 40095 ft 417 kts 283°
2026-05-05 08:07 -25.82389 143.90208 40109 ft 417 kts 283°
2026-05-05 08:08 -25.81342 143.83897 40096 ft 417 kts 283°
2026-05-05 08:08 -25.80287 143.77554 40107 ft 418 kts 283°
2026-05-05 08:09 -25.79410 143.72292 40104 ft 418 kts 283°
2026-05-05 08:09 -25.78179 143.64937 40104 ft 418 kts 283°
2026-05-05 08:10 -25.77121 143.58618 40088 ft 418 kts 283°
2026-05-05 08:10 -25.76059 143.52295 40121 ft 419 kts 283°
2026-05-05 08:11 -25.75172 143.47044 40116 ft 418 kts 283°
2026-05-05 08:11 -25.74098 143.40688 40090 ft 419 kts 283°
2026-05-05 08:12 -25.72849 143.33324 40143 ft 419 kts 283°
2026-05-05 08:12 -25.71776 143.27013 40111 ft 417 kts 283°
2026-05-05 08:13 -25.70882 143.21756 40084 ft 417 kts 283°
2026-05-05 08:13 -25.69624 143.14400 40123 ft 418 kts 283°
2026-05-05 08:14 -25.68715 143.09094 40081 ft 418 kts 283°
2026-05-05 08:14 -25.67451 143.01735 40085 ft 418 kts 283°
2026-05-05 08:15 -25.66545 142.96472 40109 ft 418 kts 283°
2026-05-05 08:15 -25.65277 142.89137 40145 ft 418 kts 283°
2026-05-05 08:16 -25.64364 142.83864 40060 ft 418 kts 283°
2026-05-05 08:16 -25.63267 142.77542 40100 ft 419 kts 283°
2026-05-05 08:17 -25.62168 142.71240 40129 ft 418 kts 283°
2026-05-05 08:17 -25.61069 142.64934 40082 ft 419 kts 283°
2026-05-05 08:18 -25.59959 142.58597 40093 ft 419 kts 283°
2026-05-05 08:18 -25.58850 142.52271 40106 ft 420 kts 283°
2026-05-05 08:19 -25.57556 142.44914 40107 ft 420 kts 283°
2026-05-05 08:19 -25.56626 142.39642 40103 ft 420 kts 283°
2026-05-05 08:20 -25.55502 142.33293 40110 ft 420 kts 283°
2026-05-05 08:20 -25.54387 142.27002 40109 ft 420 kts 283°
2026-05-05 08:21 -25.53071 142.19603 40116 ft 420 kts 283°
2026-05-05 08:21 -25.51944 142.13272 40109 ft 420 kts 283°
2026-05-05 08:22 -25.51002 142.08014 40113 ft 420 kts 283°
2026-05-05 08:22 -25.49866 142.01666 40115 ft 421 kts 283°
2026-05-05 08:23 -25.48542 141.94292 40114 ft 420 kts 283°
2026-05-05 08:23 -25.47590 141.89008 40115 ft 421 kts 283°
2026-05-05 08:24 -25.46448 141.82684 40112 ft 421 kts 283°
2026-05-05 08:24 -25.45302 141.76353 40114 ft 421 kts 282°
2026-05-05 08:25 -25.44146 141.69984 40131 ft 422 kts 282°
2026-05-05 08:25 -25.42804 141.62601 40133 ft 422 kts 282°
2026-05-05 08:26 -25.41844 141.57336 40119 ft 422 kts 283°
2026-05-05 08:26 -25.40683 141.50987 40135 ft 422 kts 283°
2026-05-05 08:27 -25.39324 141.43578 40132 ft 421 kts 282°
2026-05-05 08:27 -25.38164 141.37254 40129 ft 421 kts 282°
2026-05-05 08:28 -25.37193 141.31984 40123 ft 421 kts 283°
2026-05-05 08:28 -25.36031 141.25678 40122 ft 421 kts 283°
2026-05-05 08:29 -25.34860 141.19345 40118 ft 421 kts 283°
2026-05-05 08:30 -25.32896 141.08798 40089 ft 421 kts 283°
2026-05-05 08:30 -25.31713 141.02483 40094 ft 422 kts 283°
2026-05-05 08:31 -25.30523 140.96130 40120 ft 422 kts 283°
2026-05-05 08:31 -25.29539 140.90881 40124 ft 422 kts 282°
2026-05-05 08:32 -25.28144 140.83473 40123 ft 422 kts 282°
2026-05-05 08:32 -25.26951 140.77142 40124 ft 422 kts 282°
2026-05-05 08:33 -25.25761 140.70834 40126 ft 422 kts 282°
2026-05-05 08:33 -25.24763 140.65562 40122 ft 422 kts 282°
2026-05-05 08:34 -25.23358 140.58164 40127 ft 423 kts 282°
2026-05-05 08:34 -25.22353 140.52881 40124 ft 423 kts 282°
2026-05-05 08:35 -25.21140 140.46519 40124 ft 423 kts 282°
2026-05-05 08:35 -25.19933 140.40198 40124 ft 423 kts 282°
2026-05-05 08:36 -25.18721 140.33873 40123 ft 423 kts 283°
2026-05-05 08:36 -25.17304 140.26498 40123 ft 423 kts 282°
2026-05-05 08:37 -25.16286 140.21217 40122 ft 422 kts 282°
2026-05-05 08:37 -25.15073 140.14923 40123 ft 423 kts 282°
2026-05-05 08:38 -25.13848 140.08591 40120 ft 423 kts 282°
2026-05-05 08:38 -25.12616 140.02237 40121 ft 423 kts 282°
2026-05-05 08:39 -25.11383 139.95901 40128 ft 424 kts 282°
2026-05-05 08:39 -25.10151 139.89575 40127 ft 423 kts 282°
2026-05-05 08:40 -25.08716 139.82225 40137 ft 422 kts 282°
2026-05-05 08:40 -25.07688 139.76970 40144 ft 422 kts 282°
2026-05-05 08:41 -25.06447 139.70647 40140 ft 422 kts 282°
2026-05-05 08:41 -25.05209 139.64349 40140 ft 422 kts 282°
2026-05-05 08:42 -25.03963 139.58032 40144 ft 422 kts 282°
2026-05-05 08:42 -25.02715 139.51720 40138 ft 423 kts 282°
2026-05-05 08:43 -25.01465 139.45412 40139 ft 422 kts 282°
2026-05-05 08:43 -25.00212 139.39093 40143 ft 422 kts 282°
2026-05-05 08:44 -24.98964 139.32822 40146 ft 421 kts 282°
2026-05-05 08:44 -24.97706 139.26515 40161 ft 421 kts 282°
2026-05-05 08:45 -24.96450 139.20232 40113 ft 421 kts 282°
2026-05-05 08:45 -24.95191 139.13947 40140 ft 422 kts 282°
2026-05-05 08:46 -24.93933 139.07684 40124 ft 421 kts 282°
2026-05-05 08:46 -24.92671 139.01408 40136 ft 422 kts 282°
2026-05-05 08:47 -24.91398 138.95105 40160 ft 421 kts 282°
2026-05-05 08:47 -24.89921 138.87802 40167 ft 421 kts 282°
2026-05-05 08:48 -24.88648 138.81511 40153 ft 420 kts 282°
2026-05-05 08:48 -24.87378 138.75267 40147 ft 420 kts 282°
2026-05-05 08:49 -24.86104 138.69006 40146 ft 419 kts 282°
2026-05-05 08:49 -24.85041 138.63808 40125 ft 419 kts 281°
2026-05-05 08:50 -24.83768 138.57577 40133 ft 419 kts 282°
2026-05-05 08:50 -24.82272 138.50279 40134 ft 418 kts 282°
2026-05-05 08:51 -24.81000 138.44083 40151 ft 418 kts 282°
2026-05-05 08:51 -24.79714 138.37846 40133 ft 418 kts 281°
2026-05-05 08:52 -24.78428 138.31610 40151 ft 418 kts 282°
2026-05-05 08:52 -24.77355 138.26419 40147 ft 418 kts 282°
2026-05-05 08:53 -24.75852 138.19173 40150 ft 418 kts 282°
2026-05-05 08:53 -24.74786 138.14027 40156 ft 418 kts 282°
2026-05-05 08:54 -24.73491 138.07809 40158 ft 418 kts 282°
2026-05-05 08:54 -24.72192 138.01576 40160 ft 417 kts 282°
2026-05-05 08:55 -24.70901 137.95403 40154 ft 417 kts 281°
2026-05-05 08:55 -24.69383 137.88148 40152 ft 417 kts 281°
2026-05-05 08:56 -24.68084 137.81947 40150 ft 417 kts 282°
2026-05-05 08:56 -24.66782 137.75754 40151 ft 417 kts 282°
2026-05-05 08:57 -24.65699 137.70612 40152 ft 417 kts 282°
2026-05-05 08:57 -24.64160 137.63354 40153 ft 417 kts 281°
2026-05-05 08:58 -24.63067 137.58212 40152 ft 416 kts 281°
2026-05-05 08:58 -24.61542 137.51048 40153 ft 415 kts 281°
2026-05-05 08:59 -24.60449 137.45915 40153 ft 415 kts 281°
2026-05-05 08:59 -24.59138 137.39760 40154 ft 415 kts 281°
2026-05-05 09:00 -24.57818 137.33577 40159 ft 414 kts 282°
2026-05-05 09:00 -24.56286 137.26433 40156 ft 414 kts 281°
2026-05-05 09:01 -24.54964 137.20273 40157 ft 414 kts 282°
2026-05-05 09:01 -24.53865 137.15163 40158 ft 414 kts 282°
2026-05-05 09:02 -24.52550 137.09044 40157 ft 414 kts 282°
2026-05-05 09:02 -24.51007 137.01897 40162 ft 414 kts 281°
2026-05-05 09:03 -24.49907 136.96793 40170 ft 413 kts 281°
2026-05-05 09:03 -24.48362 136.89667 40172 ft 413 kts 281°
2026-05-05 09:04 -24.47237 136.83473 40171 ft 412 kts 277°
2026-05-05 09:04 -24.46759 136.78308 40172 ft 411 kts 273°
2026-05-05 09:05 -24.46777 136.71007 40174 ft 411 kts 267°
2026-05-05 09:05 -24.47286 136.65804 40176 ft 412 kts 262°
2026-05-05 09:06 -24.48460 136.58629 40177 ft 412 kts 261°
2026-05-05 09:06 -24.49328 136.53479 40177 ft 412 kts 261°
2026-05-05 09:07 -24.50546 136.46277 40176 ft 412 kts 261°
2026-05-05 09:07 -24.51594 136.40103 40179 ft 412 kts 261°
2026-05-05 09:08 -24.52462 136.34976 40175 ft 412 kts 262°
2026-05-05 09:08 -24.53505 136.28792 40175 ft 411 kts 261°
2026-05-05 09:09 -24.54542 136.22641 40173 ft 411 kts 262°
2026-05-05 09:09 -24.55576 136.16492 40173 ft 411 kts 261°
2026-05-05 09:10 -24.56615 136.10300 40177 ft 411 kts 261°
2026-05-05 09:10 -24.57814 136.03136 40178 ft 412 kts 262°
2026-05-05 09:11 -24.58680 135.97960 40177 ft 412 kts 262°
2026-05-05 09:11 -24.59707 135.91780 40179 ft 412 kts 262°
2026-05-05 09:12 -24.60735 135.85597 40178 ft 413 kts 262°
2026-05-05 09:12 -24.61758 135.79410 40180 ft 413 kts 261°
2026-05-05 09:13 -24.62945 135.72217 40177 ft 412 kts 261°
2026-05-05 09:13 -24.63797 135.67056 40180 ft 412 kts 261°
2026-05-05 09:14 -24.64812 135.60873 40179 ft 413 kts 261°
2026-05-05 09:14 -24.65820 135.54718 40179 ft 412 kts 261°
2026-05-05 09:15 -24.66836 135.48514 40175 ft 412 kts 261°
2026-05-05 09:15 -24.68011 135.41310 40173 ft 412 kts 262°
2026-05-05 09:16 -24.69017 135.35110 40176 ft 412 kts 261°
2026-05-05 09:16 -24.69855 135.29935 40180 ft 412 kts 262°
2026-05-05 09:17 -24.70851 135.23776 40177 ft 412 kts 262°
2026-05-05 09:17 -24.71853 135.17563 40183 ft 412 kts 262°
2026-05-05 09:18 -24.73012 135.10355 40192 ft 413 kts 262°
2026-05-05 09:18 -24.73842 135.05182 40197 ft 412 kts 262°
2026-05-05 09:19 -24.75000 134.97945 40204 ft 412 kts 262°
2026-05-05 09:19 -24.75819 134.92807 40206 ft 411 kts 262°
2026-05-05 09:20 -24.76803 134.86618 40210 ft 412 kts 262°
2026-05-05 09:20 -24.77946 134.79413 40210 ft 411 kts 262°
2026-05-05 09:21 -24.78923 134.73239 40213 ft 412 kts 262°
2026-05-05 09:21 -24.79903 134.67023 40211 ft 411 kts 262°
2026-05-05 09:22 -24.80712 134.61882 40218 ft 411 kts 262°
2026-05-05 09:22 -24.81679 134.55707 40213 ft 411 kts 262°
2026-05-05 09:23 -24.82646 134.49532 40216 ft 411 kts 262°
2026-05-05 09:23 -24.83775 134.42297 40222 ft 411 kts 262°
2026-05-05 09:24 -24.84572 134.37164 40214 ft 410 kts 262°
2026-05-05 09:24 -24.85535 134.30960 40221 ft 411 kts 262°
2026-05-05 09:25 -24.86490 134.24793 40222 ft 411 kts 262°
2026-05-05 09:25 -24.87442 134.18613 40221 ft 410 kts 262°
2026-05-05 09:26 -24.88553 134.11395 40221 ft 410 kts 262°
2026-05-05 09:26 -24.89340 134.06265 40219 ft 411 kts 262°
2026-05-05 09:27 -24.90287 134.00072 40226 ft 411 kts 262°
2026-05-05 09:27 -24.91230 133.93895 40220 ft 410 kts 262°
2026-05-05 09:28 -24.92172 133.87707 40223 ft 410 kts 262°
2026-05-05 09:28 -24.93263 133.80501 40214 ft 410 kts 262°
2026-05-05 09:29 -24.94036 133.75380 40218 ft 410 kts 262°
2026-05-05 09:29 -24.95133 133.68121 40215 ft 411 kts 262°
2026-05-05 09:30 -24.96060 133.61952 40214 ft 411 kts 262°
2026-05-05 09:30 -24.96840 133.56758 40216 ft 412 kts 262°
2026-05-05 09:31 -24.97769 133.50539 40216 ft 412 kts 262°
2026-05-05 09:31 -24.98847 133.43300 40215 ft 412 kts 262°
2026-05-05 09:32 -24.99767 133.37102 40215 ft 411 kts 262°
2026-05-05 09:32 -25.00537 133.31914 40215 ft 412 kts 263°
2026-05-05 09:33 -25.01604 133.24683 40214 ft 411 kts 263°
2026-05-05 09:33 -25.02363 133.19531 40213 ft 411 kts 263°
2026-05-05 09:34 -25.03277 133.13304 40214 ft 411 kts 263°
2026-05-05 09:34 -25.04181 133.07130 40212 ft 411 kts 263°
2026-05-05 09:35 -25.05091 133.00909 40214 ft 411 kts 263°
2026-05-05 09:35 -25.06442 132.91621 40213 ft 411 kts 262°
2026-05-05 09:36 -25.07345 132.85385 40211 ft 411 kts 263°
2026-05-05 09:36 -25.08244 132.79164 40212 ft 411 kts 263°
2026-05-05 09:37 -25.09137 132.72967 40212 ft 412 kts 263°
2026-05-05 09:37 -25.10035 132.66728 40211 ft 412 kts 263°
2026-05-05 09:38 -25.11073 132.59480 40213 ft 412 kts 263°
2026-05-05 09:38 -25.11818 132.54271 40213 ft 412 kts 263°
2026-05-05 09:39 -25.12836 132.47025 40216 ft 412 kts 264°
2026-05-05 09:39 -25.13300 132.41779 40218 ft 412 kts 267°
2026-05-05 09:40 -25.13527 132.35510 40216 ft 411 kts 268°
2026-05-05 09:40 -25.13730 132.29210 40214 ft 411 kts 269°
2026-05-05 09:41 -25.13961 132.21867 40216 ft 411 kts 269°
2026-05-05 09:41 -25.14154 132.15604 40217 ft 412 kts 269°
2026-05-05 09:42 -25.14313 132.10358 40217 ft 412 kts 269°
2026-05-05 09:42 -25.14532 132.02989 40225 ft 413 kts 269°
2026-05-05 09:43 -25.14716 131.96661 40234 ft 412 kts 269°
2026-05-05 09:43 -25.14866 131.91396 40231 ft 412 kts 269°
2026-05-05 09:44 -25.15042 131.85118 40234 ft 412 kts 269°
2026-05-05 09:44 -25.15221 131.78821 40226 ft 412 kts 269°
2026-05-05 09:45 -25.15423 131.71487 40230 ft 412 kts 269°
2026-05-05 09:45 -25.15594 131.65160 40226 ft 412 kts 269°
2026-05-05 09:46 -25.15762 131.58865 40217 ft 412 kts 269°
2026-05-05 09:46 -25.15899 131.53609 40220 ft 412 kts 269°
2026-05-05 09:47 -25.16062 131.47325 40213 ft 411 kts 269°
2026-05-05 09:47 -25.16220 131.41038 40215 ft 411 kts 269°
2026-05-05 09:48 -25.16378 131.34766 40216 ft 411 kts 270°
2026-05-05 09:48 -25.16535 131.28458 40217 ft 411 kts 269°
2026-05-05 09:49 -25.16687 131.22170 40221 ft 410 kts 270°
2026-05-05 09:49 -25.16837 131.15927 40224 ft 411 kts 269°
2026-05-05 09:50 -25.16982 131.09650 40225 ft 410 kts 269°
2026-05-05 09:50 -25.17057 131.03361 40225 ft 409 kts 272°
2026-05-05 09:51 -25.16571 130.96089 40226 ft 409 kts 277°
2026-05-05 09:51 -25.15627 130.89893 40222 ft 410 kts 281°
2026-05-05 09:52 -25.14595 130.84817 40221 ft 410 kts 281°
2026-05-05 09:52 -25.13330 130.78670 40214 ft 410 kts 281°
2026-05-05 09:53 -25.11864 130.71567 40214 ft 410 kts 281°
2026-05-05 09:53 -25.10591 130.65437 40213 ft 410 kts 281°
2026-05-05 09:54 -25.09319 130.59341 40211 ft 409 kts 281°
2026-05-05 09:54 -25.08262 130.54274 40210 ft 409 kts 281°
2026-05-05 09:55 -25.06767 130.47133 40208 ft 409 kts 281°
2026-05-05 09:55 -25.05494 130.41060 40213 ft 408 kts 281°
2026-05-05 09:56 -25.04212 130.34975 40212 ft 409 kts 282°
2026-05-05 09:56 -25.03135 130.29864 40210 ft 409 kts 282°
2026-05-05 09:57 -25.01851 130.23793 40207 ft 410 kts 281°
2026-05-05 09:57 -25.00352 130.16692 40207 ft 409 kts 281°
2026-05-05 09:58 -24.99277 130.11633 40209 ft 408 kts 281°
2026-05-05 09:58 -24.97764 130.04524 40212 ft 409 kts 281°
2026-05-05 09:59 -24.96466 129.98427 40208 ft 408 kts 282°
2026-05-05 09:59 -24.95174 129.92384 40210 ft 408 kts 281°
2026-05-05 10:00 -24.94086 129.87300 40213 ft 408 kts 281°
2026-05-05 10:00 -24.92786 129.81233 40209 ft 408 kts 281°
2026-05-05 10:01 -24.91268 129.74168 40213 ft 408 kts 281°
2026-05-05 10:01 -24.90186 129.69128 40214 ft 408 kts 281°
2026-05-05 10:02 -24.88872 129.63040 40217 ft 408 kts 282°
2026-05-05 10:02 -24.87346 129.55986 40216 ft 408 kts 282°
2026-05-05 10:03 -24.86249 129.50937 40215 ft 407 kts 281°
2026-05-05 10:03 -24.84939 129.44900 40219 ft 408 kts 281°
2026-05-05 10:04 -24.83621 129.38832 40216 ft 408 kts 281°
2026-05-05 10:04 -24.82303 129.32774 40220 ft 408 kts 282°
2026-05-05 10:05 -24.80984 129.26752 40214 ft 408 kts 282°
2026-05-05 10:05 -24.79656 129.20676 40210 ft 408 kts 282°
2026-05-05 10:06 -24.78107 129.13620 40212 ft 407 kts 282°
2026-05-05 10:06 -24.76997 129.08574 40211 ft 408 kts 282°
2026-05-05 10:07 -24.75670 129.02551 40211 ft 408 kts 282°
2026-05-05 10:07 -24.74339 128.96504 40208 ft 407 kts 282°
2026-05-05 10:08 -24.73008 128.90480 40208 ft 407 kts 282°
2026-05-05 10:08 -24.71444 128.83427 40208 ft 406 kts 282°
2026-05-05 10:09 -24.70328 128.78407 40208 ft 406 kts 282°
2026-05-05 10:09 -24.68995 128.72414 40208 ft 406 kts 282°
2026-05-05 10:10 -24.67436 128.65414 40205 ft 406 kts 282°
2026-05-05 10:10 -24.66312 128.60382 40206 ft 406 kts 282°
2026-05-05 10:11 -24.64972 128.54395 40202 ft 405 kts 282°
2026-05-05 10:11 -24.63626 128.48384 40205 ft 407 kts 282°
2026-05-05 10:12 -24.62278 128.42383 40204 ft 406 kts 282°
2026-05-05 10:12 -24.60925 128.36371 40201 ft 405 kts 282°
2026-05-05 10:13 -24.59571 128.30374 40201 ft 406 kts 282°
2026-05-05 10:13 -24.57986 128.23352 40192 ft 406 kts 282°
2026-05-05 10:14 -24.56857 128.18373 40191 ft 405 kts 282°
2026-05-05 10:14 -24.55500 128.12380 40189 ft 405 kts 282°
2026-05-05 10:15 -24.54143 128.06398 40186 ft 405 kts 282°
2026-05-05 10:15 -24.52775 128.00400 40187 ft 406 kts 282°
2026-05-05 10:16 -24.51410 127.94405 40184 ft 405 kts 282°
2026-05-05 10:16 -24.50037 127.88397 40180 ft 404 kts 282°
2026-05-05 10:17 -24.48449 127.81465 40185 ft 405 kts 282°
2026-05-05 10:17 -24.47296 127.76451 40176 ft 405 kts 282°
2026-05-05 10:18 -24.45926 127.70483 40182 ft 404 kts 282°
2026-05-05 10:18 -24.44554 127.64527 40178 ft 404 kts 282°
2026-05-05 10:19 -24.43177 127.58575 40172 ft 403 kts 282°
2026-05-05 10:19 -24.41804 127.52634 40173 ft 403 kts 282°
2026-05-05 10:20 -24.40429 127.46676 40173 ft 403 kts 282°
2026-05-05 10:20 -24.39055 127.40753 40171 ft 404 kts 282°
2026-05-05 10:21 -24.37675 127.34801 40175 ft 403 kts 282°
2026-05-05 10:21 -24.36280 127.28841 40169 ft 404 kts 282°
2026-05-05 10:22 -24.34884 127.22875 40166 ft 403 kts 283°
2026-05-05 10:22 -24.33497 127.16966 40169 ft 402 kts 282°
2026-05-05 10:23 -24.32111 127.11061 40168 ft 401 kts 283°
2026-05-05 10:23 -24.30721 127.05144 40168 ft 400 kts 282°
2026-05-05 10:24 -24.29331 126.99253 40166 ft 401 kts 283°
2026-05-05 10:24 -24.27942 126.93359 40163 ft 401 kts 282°
2026-05-05 10:25 -24.26548 126.87462 40164 ft 401 kts 282°
2026-05-05 10:25 -24.24919 126.80579 40162 ft 400 kts 282°
2026-05-05 10:26 -24.23755 126.75668 40169 ft 401 kts 282°
2026-05-05 10:26 -24.22360 126.69798 40168 ft 400 kts 283°
2026-05-05 10:27 -24.20948 126.63892 40165 ft 400 kts 282°
2026-05-05 10:27 -24.19317 126.57051 40168 ft 400 kts 282°
2026-05-05 10:28 -24.17917 126.51181 40163 ft 400 kts 282°
2026-05-05 10:28 -24.16509 126.45303 40159 ft 400 kts 282°
2026-05-05 10:29 -24.15333 126.40402 40163 ft 400 kts 282°
2026-05-05 10:29 -24.13922 126.34523 40160 ft 400 kts 283°
2026-05-05 10:30 -24.12271 126.27672 40162 ft 401 kts 282°
2026-05-05 10:30 -24.11087 126.22763 40160 ft 401 kts 283°
2026-05-05 10:31 -24.09667 126.16872 40158 ft 401 kts 282°
2026-05-05 10:31 -24.08241 126.10983 40154 ft 400 kts 282°
2026-05-05 10:32 -24.06582 126.04139 40156 ft 400 kts 282°
2026-05-05 10:32 -24.05390 125.99238 40157 ft 401 kts 282°
2026-05-05 10:33 -24.03961 125.93355 40154 ft 400 kts 283°
2026-05-05 10:33 -24.02537 125.87517 40155 ft 400 kts 282°
2026-05-05 10:34 -24.00865 125.80669 40159 ft 400 kts 283°
2026-05-05 10:34 -23.99427 125.74801 40162 ft 401 kts 282°
2026-05-05 10:35 -23.98232 125.69914 40157 ft 400 kts 282°
2026-05-05 10:35 -23.96789 125.64041 40155 ft 400 kts 282°
2026-05-05 10:36 -23.95112 125.57217 40156 ft 401 kts 282°
2026-05-05 10:36 -23.93910 125.52338 40154 ft 400 kts 283°
2026-05-05 10:37 -23.92217 125.45492 40153 ft 400 kts 282°
2026-05-05 10:37 -23.90776 125.39658 40152 ft 399 kts 283°
2026-05-05 10:38 -23.89572 125.34798 40154 ft 399 kts 283°
2026-05-05 10:38 -23.87870 125.27950 40152 ft 400 kts 283°
2026-05-05 10:39 -23.86659 125.23071 40150 ft 399 kts 283°
2026-05-05 10:39 -23.85205 125.17229 40148 ft 399 kts 283°
2026-05-05 10:40 -23.83748 125.11382 40148 ft 399 kts 283°
2026-05-05 10:40 -23.82291 125.05563 40147 ft 399 kts 283°
2026-05-05 10:41 -23.80587 124.98743 40148 ft 399 kts 283°
2026-05-05 10:41 -23.79133 124.92945 40146 ft 399 kts 282°
2026-05-05 10:42 -23.77181 124.85168 40142 ft 398 kts 283°
2026-05-05 10:43 -23.75469 124.78374 40143 ft 399 kts 282°
2026-05-05 10:43 -23.74002 124.72551 40145 ft 399 kts 283°
2026-05-05 10:44 -23.72781 124.67719 40142 ft 399 kts 282°
2026-05-05 10:44 -23.71313 124.61916 40142 ft 399 kts 283°
2026-05-05 10:45 -23.69830 124.56074 40139 ft 398 kts 283°
2026-05-05 10:45 -23.68358 124.50272 40142 ft 398 kts 282°
2026-05-05 10:46 -23.66888 124.44488 40138 ft 397 kts 282°
2026-05-05 10:46 -23.65416 124.38713 40139 ft 397 kts 283°
2026-05-05 10:47 -23.63938 124.32914 40144 ft 398 kts 282°
2026-05-05 10:47 -23.62454 124.27097 40139 ft 397 kts 283°
2026-05-05 10:48 -23.60978 124.21329 40137 ft 397 kts 283°
2026-05-05 10:48 -23.59489 124.15525 40135 ft 396 kts 283°
2026-05-05 10:49 -23.58010 124.09758 40136 ft 397 kts 283°
2026-05-05 10:49 -23.56524 124.03966 40143 ft 397 kts 282°
2026-05-05 10:50 -23.55041 123.98204 40139 ft 398 kts 283°
2026-05-05 10:50 -23.53635 123.92379 40135 ft 396 kts 280°
2026-05-05 10:51 -23.52663 123.86531 40140 ft 395 kts 276°
2026-05-05 10:51 -23.52132 123.80582 40141 ft 395 kts 272°
2026-05-05 10:52 -23.51992 123.74649 40139 ft 394 kts 271°
2026-05-05 10:52 -23.51899 123.68689 40138 ft 394 kts 270°
2026-05-05 10:53 -23.51814 123.62721 40139 ft 394 kts 270°
2026-05-05 10:53 -23.51732 123.56793 40143 ft 395 kts 270°
2026-05-05 10:54 -23.51634 123.49812 40144 ft 395 kts 270°
2026-05-05 10:54 -23.51561 123.44843 40144 ft 395 kts 270°
2026-05-05 10:55 -23.51474 123.38882 40138 ft 394 kts 270°
2026-05-05 10:55 -23.51385 123.32929 40143 ft 394 kts 270°
2026-05-05 10:56 -23.51293 123.26999 40137 ft 394 kts 270°
2026-05-05 10:56 -23.51187 123.20023 40135 ft 394 kts 270°
2026-05-05 10:57 -23.51108 123.15103 40139 ft 394 kts 270°
2026-05-05 10:57 -23.51009 123.09139 40135 ft 394 kts 270°
2026-05-05 10:58 -23.50909 123.03173 40137 ft 394 kts 270°
2026-05-05 10:58 -23.50808 122.97220 40140 ft 394 kts 270°
2026-05-05 10:59 -23.50703 122.91273 40135 ft 394 kts 270°
2026-05-05 10:59 -23.50594 122.85305 40139 ft 394 kts 270°
2026-05-05 11:00 -23.50485 122.79341 40141 ft 394 kts 270°
2026-05-05 11:00 -23.50377 122.73413 40145 ft 394 kts 270°
2026-05-05 11:01 -23.50262 122.67468 40151 ft 395 kts 270°
2026-05-05 11:01 -23.50145 122.61503 40148 ft 394 kts 270°
2026-05-05 11:02 -23.50025 122.55553 40154 ft 394 kts 270°
2026-05-05 11:02 -23.49884 122.48598 40153 ft 394 kts 270°
2026-05-05 11:03 -23.49784 122.43672 40154 ft 394 kts 270°
2026-05-05 11:03 -23.49658 122.37701 40155 ft 393 kts 270°
2026-05-05 11:04 -23.49530 122.31773 40159 ft 394 kts 270°
2026-05-05 11:04 -23.49402 122.25823 40157 ft 394 kts 270°
2026-05-05 11:05 -23.49269 122.19843 40159 ft 393 kts 270°
2026-05-05 11:05 -23.49113 122.12933 40160 ft 393 kts 270°
2026-05-05 11:06 -23.49001 122.07980 40162 ft 394 kts 270°
2026-05-05 11:06 -23.48838 122.01015 40162 ft 394 kts 270°
2026-05-05 11:07 -23.48721 121.96078 40162 ft 394 kts 270°
2026-05-05 11:07 -23.48575 121.90100 40162 ft 394 kts 270°
2026-05-05 11:08 -23.48432 121.84171 40164 ft 394 kts 270°
2026-05-05 11:08 -23.48284 121.78211 40163 ft 394 kts 270°
2026-05-05 11:09 -23.48134 121.72272 40165 ft 394 kts 270°
2026-05-05 11:09 -23.47981 121.66325 40167 ft 393 kts 270°
2026-05-05 11:10 -23.47829 121.60395 40169 ft 394 kts 270°
2026-05-05 11:10 -23.47672 121.54452 40169 ft 394 kts 270°
2026-05-05 11:11 -23.47485 121.47517 40166 ft 393 kts 270°
2026-05-05 11:11 -23.47354 121.42578 40171 ft 393 kts 270°
2026-05-05 11:12 -23.47192 121.36649 40170 ft 393 kts 270°
2026-05-05 11:12 -23.47026 121.30701 40176 ft 394 kts 271°
2026-05-05 11:13 -23.46858 121.24759 40176 ft 393 kts 271°
2026-05-05 11:13 -23.46689 121.18835 40176 ft 394 kts 270°
2026-05-05 11:14 -23.46515 121.12905 40178 ft 394 kts 270°
2026-05-05 11:14 -23.46311 121.05958 40180 ft 393 kts 270°
2026-05-05 11:15 -23.46164 121.01035 40181 ft 393 kts 270°
2026-05-05 11:15 -23.45986 120.95084 40181 ft 393 kts 270°
2026-05-05 11:16 -23.45806 120.89149 40184 ft 393 kts 270°
2026-05-05 11:16 -23.45623 120.83225 40182 ft 393 kts 270°
2026-05-05 11:17 -23.45437 120.77284 40182 ft 393 kts 270°
2026-05-05 11:17 -23.45218 120.70379 40182 ft 393 kts 270°
2026-05-05 11:18 -23.45060 120.65427 40182 ft 393 kts 270°
2026-05-05 11:18 -23.44869 120.59500 40183 ft 393 kts 270°
2026-05-05 11:19 -23.44674 120.53589 40181 ft 393 kts 270°
2026-05-05 11:19 -23.44481 120.47655 40184 ft 394 kts 270°
2026-05-05 11:20 -23.44282 120.41705 40183 ft 394 kts 270°
2026-05-05 11:20 -23.44045 120.34772 40183 ft 393 kts 271°
2026-05-05 11:21 -23.43877 120.29830 40185 ft 393 kts 270°
2026-05-05 11:21 -23.43669 120.23885 40184 ft 394 kts 270°
2026-05-05 11:22 -23.43462 120.17924 40184 ft 394 kts 270°
2026-05-05 11:22 -23.43254 120.11989 40184 ft 394 kts 270°
2026-05-05 11:23 -23.43042 120.06071 40184 ft 394 kts 271°
2026-05-05 11:23 -23.42828 120.00130 40183 ft 394 kts 270°
2026-05-05 11:24 -23.42580 119.93202 40185 ft 394 kts 270°
2026-05-05 11:24 -23.42396 119.88248 40185 ft 394 kts 270°
2026-05-05 11:25 -23.42168 119.82322 40185 ft 394 kts 271°
2026-05-05 11:25 -23.41634 119.76368 40185 ft 395 kts 274°
2026-05-05 11:26 -23.40980 119.70444 40186 ft 395 kts 274°
2026-05-05 11:26 -23.40325 119.64542 40186 ft 395 kts 274°
2026-05-05 11:27 -23.39665 119.58647 40189 ft 394 kts 274°
2026-05-05 11:27 -23.38888 119.51738 40186 ft 394 kts 274°
2026-05-05 11:28 -23.38335 119.46832 40188 ft 394 kts 274°
2026-05-05 11:28 -23.37663 119.40914 40189 ft 394 kts 274°
2026-05-05 11:29 -23.36879 119.34029 40197 ft 395 kts 274°
2026-05-05 11:29 -23.36317 119.29078 40196 ft 395 kts 274°
2026-05-05 11:30 -23.35642 119.23167 40198 ft 395 kts 274°
2026-05-05 11:30 -23.34964 119.17263 40198 ft 395 kts 274°
2026-05-05 11:31 -23.34283 119.11361 40194 ft 395 kts 274°
2026-05-05 11:31 -23.33599 119.05419 40197 ft 395 kts 274°
2026-05-05 11:32 -23.32912 118.99508 40199 ft 395 kts 274°
2026-05-05 11:32 -23.32226 118.93612 40195 ft 394 kts 274°
2026-05-05 11:33 -23.31533 118.87682 40199 ft 395 kts 274°
2026-05-05 11:33 -23.30843 118.81783 40203 ft 396 kts 274°
2026-05-05 11:34 -23.30148 118.75872 40205 ft 395 kts 274°
2026-05-05 11:34 -23.29451 118.69953 40206 ft 395 kts 274°
2026-05-05 11:35 -23.28757 118.64069 40199 ft 394 kts 274°
2026-05-05 11:35 -23.28058 118.58176 40196 ft 394 kts 274°
2026-05-05 11:36 -23.27357 118.52302 40190 ft 393 kts 274°
2026-05-05 11:36 -23.26656 118.46430 40187 ft 393 kts 274°
2026-05-05 11:37 -23.25951 118.40540 40186 ft 394 kts 274°
2026-05-05 11:37 -23.25240 118.34623 40179 ft 394 kts 274°
2026-05-05 11:38 -23.24534 118.28767 40181 ft 394 kts 274°
2026-05-05 11:38 -23.23822 118.22877 40175 ft 393 kts 274°
2026-05-05 11:39 -23.23105 118.16966 40176 ft 394 kts 274°
2026-05-05 11:39 -23.22270 118.10096 40177 ft 393 kts 274°
2026-05-05 11:40 -23.21954 118.07516 40177 ft 393 kts 274°
2026-05-05 11:40 -23.21388 118.02886 40174 ft 394 kts 274°
2026-05-05 11:41 -23.20670 117.97025 40174 ft 394 kts 274°
2026-05-05 11:41 -23.19947 117.91119 40171 ft 393 kts 274°
2026-05-05 11:42 -23.19225 117.85225 40174 ft 394 kts 274°
2026-05-05 11:42 -23.18500 117.79374 40167 ft 394 kts 274°
2026-05-05 11:43 -23.17685 117.73487 40168 ft 394 kts 276°
2026-05-05 11:43 -23.16581 117.67670 40165 ft 395 kts 277°
2026-05-05 11:44 -23.15473 117.61839 40170 ft 396 kts 277°
2026-05-05 11:44 -23.14356 117.55991 40165 ft 395 kts 277°
2026-05-05 11:45 -23.13239 117.50161 40164 ft 394 kts 277°
2026-05-05 11:45 -23.12122 117.44354 40163 ft 394 kts 277°
2026-05-05 11:46 -23.11004 117.38554 40169 ft 395 kts 277°
2026-05-05 11:46 -23.09876 117.32721 40168 ft 395 kts 277°
2026-05-05 11:47 -23.08756 117.26925 40161 ft 394 kts 277°
2026-05-05 11:47 -23.07629 117.21105 40146 ft 394 kts 277°
2026-05-05 11:48 -23.05936 117.12401 40150 ft 394 kts 277°
2026-05-05 11:48 -23.04802 117.06578 40146 ft 395 kts 277°
2026-05-05 11:49 -23.03667 117.00762 40145 ft 395 kts 277°
2026-05-05 11:49 -23.02533 116.94952 40139 ft 394 kts 277°
2026-05-05 11:50 -23.01397 116.89162 40143 ft 395 kts 277°
2026-05-05 11:50 -23.00257 116.83340 40141 ft 394 kts 277°
2026-05-05 11:51 -22.99118 116.77553 40140 ft 393 kts 277°
2026-05-05 11:51 -22.97974 116.71763 40134 ft 394 kts 277°
2026-05-05 11:52 -22.96829 116.65958 40130 ft 394 kts 277°
2026-05-05 11:52 -22.95674 116.60138 40127 ft 394 kts 277°
2026-05-05 11:53 -22.94528 116.54356 40124 ft 394 kts 277°
2026-05-05 11:53 -22.93366 116.48522 40114 ft 395 kts 277°
2026-05-05 11:54 -22.92215 116.42741 40112 ft 395 kts 277°
2026-05-05 11:54 -22.91048 116.36901 40116 ft 396 kts 277°
2026-05-05 11:55 -22.89886 116.31094 40120 ft 396 kts 277°
2026-05-05 11:55 -22.88719 116.25257 40111 ft 395 kts 278°
2026-05-05 11:56 -22.87551 116.19446 40111 ft 395 kts 277°
2026-05-05 11:56 -22.86381 116.13634 40107 ft 396 kts 277°
2026-05-05 11:57 -22.85206 116.07802 40109 ft 396 kts 277°
2026-05-05 11:57 -22.84035 116.01999 40107 ft 396 kts 277°
2026-05-05 11:58 -22.82853 115.96165 40106 ft 397 kts 277°
2026-05-05 11:58 -22.81681 115.90389 39699 ft 390 kts 277°
2026-05-05 11:59 -22.81099 115.87534 39242 ft 383 kts 277°
2026-05-05 11:59 -22.80535 115.84765 38737 ft 377 kts 277°
2026-05-05 11:59 -22.79970 115.81998 38215 ft 372 kts 277°
2026-05-05 11:59 -22.79421 115.79292 37724 ft 369 kts 277°
2026-05-05 12:00 -22.78875 115.76613 37135 ft 369 kts 277°
2026-05-05 12:00 -22.78322 115.73887 36347 ft 372 kts 277°
2026-05-05 12:00 -22.77771 115.71169 35590 ft 374 kts 277°
2026-05-05 12:00 -22.77209 115.68412 34821 ft 375 kts 277°
2026-05-05 12:01 -22.76650 115.65672 34017 ft 378 kts 277°
2026-05-05 12:01 -22.76084 115.62895 33181 ft 381 kts 278°
2026-05-05 12:01 -22.75511 115.60093 32423 ft 383 kts 278°
2026-05-05 12:01 -22.74931 115.57273 31557 ft 390 kts 278°
2026-05-05 12:02 -22.74346 115.54403 30321 ft 404 kts 278°
2026-05-05 12:02 -22.73738 115.51429 29295 ft 411 kts 279°
2026-05-05 12:02 -22.73118 115.48422 28514 ft 412 kts 279°
2026-05-05 12:02 -22.72488 115.45370 27515 ft 417 kts 279°
2026-05-05 12:03 -22.71861 115.42335 26804 ft 416 kts 279°
2026-05-05 12:03 -22.71235 115.39311 25988 ft 417 kts 279°
2026-05-05 12:03 -22.70601 115.36243 25099 ft 420 kts 279°
2026-05-05 12:03 -22.69962 115.33155 24295 ft 420 kts 280°
2026-05-05 12:04 -22.69324 115.30075 23536 ft 420 kts 280°
2026-05-05 12:04 -22.68690 115.27019 22782 ft 420 kts 280°
2026-05-05 12:04 -22.68054 115.23947 22037 ft 419 kts 280°
2026-05-05 12:04 -22.67420 115.20900 21357 ft 417 kts 280°
2026-05-05 12:05 -22.66789 115.17862 20700 ft 414 kts 280°
2026-05-05 12:05 -22.66155 115.14810 20053 ft 411 kts 281°
2026-05-05 12:05 -22.65534 115.11828 19415 ft 408 kts 281°
2026-05-05 12:05 -22.64918 115.08873 18789 ft 406 kts 281°
2026-05-05 12:06 -22.64295 115.05886 18151 ft 403 kts 281°
2026-05-05 12:06 -22.63680 115.02939 17521 ft 401 kts 281°
2026-05-05 12:06 -22.63069 115.00015 16884 ft 399 kts 281°
2026-05-05 12:06 -22.62463 114.97114 16256 ft 397 kts 281°
2026-05-05 12:07 -22.61857 114.94218 15635 ft 395 kts 281°
2026-05-05 12:07 -22.61252 114.91331 15009 ft 393 kts 281°
2026-05-05 12:07 -22.60651 114.88470 14400 ft 391 kts 281°
2026-05-05 12:07 -22.60055 114.85633 13838 ft 388 kts 281°
2026-05-05 12:08 -22.59463 114.82819 13461 ft 380 kts 281°
2026-05-05 12:08 -22.58883 114.80063 13094 ft 373 kts 281°
2026-05-05 12:08 -22.58307 114.77331 12731 ft 366 kts 281°
2026-05-05 12:08 -22.57754 114.74706 12384 ft 359 kts 281°
2026-05-05 12:09 -22.57201 114.72083 12043 ft 353 kts 281°
2026-05-05 12:09 -22.56662 114.69529 11704 ft 347 kts 281°
2026-05-05 12:09 -22.56132 114.67017 11369 ft 342 kts 281°
2026-05-05 12:09 -22.55606 114.64529 11042 ft 337 kts 281°
2026-05-05 12:10 -22.55083 114.62058 10725 ft 333 kts 281°
2026-05-05 12:10 -22.54577 114.59664 10428 ft 328 kts 281°
2026-05-05 12:10 -22.54068 114.57262 10136 ft 323 kts 281°
2026-05-05 12:10 -22.53569 114.54905 9854 ft 319 kts 281°
2026-05-05 12:11 -22.53084 114.52618 9590 ft 314 kts 281°
2026-05-05 12:11 -22.52597 114.50326 9331 ft 310 kts 281°
2026-05-05 12:11 -22.52117 114.48063 9080 ft 306 kts 281°
2026-05-05 12:11 -22.51645 114.45840 8842 ft 301 kts 281°
2026-05-05 12:12 -22.51183 114.43664 8615 ft 297 kts 281°
2026-05-05 12:12 -22.50719 114.41488 8391 ft 293 kts 281°
2026-05-05 12:12 -22.50265 114.39352 8122 ft 292 kts 281°
2026-05-05 12:12 -22.49810 114.37209 7821 ft 292 kts 281°
2026-05-05 12:13 -22.49359 114.35088 7527 ft 291 kts 281°
2026-05-05 12:13 -22.48906 114.32960 7236 ft 291 kts 281°
2026-05-05 12:13 -22.48452 114.30839 6948 ft 290 kts 281°
2026-05-05 12:13 -22.47995 114.28705 6659 ft 290 kts 281°
2026-05-05 12:14 -22.47544 114.26591 6372 ft 290 kts 282°
2026-05-05 12:14 -22.47087 114.24457 6088 ft 289 kts 282°
2026-05-05 12:14 -22.46638 114.22358 5814 ft 289 kts 282°
2026-05-05 12:14 -22.46184 114.20243 5642 ft 284 kts 282°
2026-05-05 12:15 -22.45741 114.18185 5485 ft 279 kts 282°
2026-05-05 12:15 -22.45279 114.16172 5328 ft 275 kts 286°
2026-05-05 12:15 -22.44610 114.14267 5172 ft 272 kts 292°
2026-05-05 12:15 -22.43843 114.12391 5015 ft 268 kts 294°
2026-05-05 12:16 -22.43088 114.10593 4869 ft 264 kts 294°
2026-05-05 12:16 -22.42300 114.08810 4638 ft 264 kts 303°
2026-05-05 12:16 -22.40937 114.07465 4103 ft 269 kts 335°
2026-05-05 12:16 -22.39170 114.07008 3222 ft 258 kts
2026-05-05 12:17 -22.37439 114.07272 2476 ft 248 kts 13°
2026-05-05 12:17 -22.35847 114.07688 2181 ft 224 kts 19°
2026-05-05 12:17 -22.34366 114.08078 1875 ft 209 kts 13°
2026-05-05 12:17 -22.32975 114.08301 1631 ft 195 kts
2026-05-05 12:18 -22.31655 114.08422 1365 ft 187 kts
2026-05-05 12:18 -22.30382 114.08502 1105 ft 180 kts
2026-05-05 12:18 -22.29151 114.08585 881 ft 172 kts
2026-05-05 12:18 -22.27973 114.08673 656 ft 166 kts
2026-05-05 12:19 -22.26842 114.08757 441 ft 160 kts
2026-05-05 12:19 -22.25742 114.08837 237 ft 154 kts
2026-05-05 12:19 -22.24702 114.08913 76 ft 147 kts
2026-05-05 12:19 -22.23725 114.08977 34 ft 124 kts
2026-05-05 12:20 -22.23045 114.09029 34 ft 73 kts
2026-05-05 12:20 -22.22662 114.08978 34 ft 39 kts 336°
2026-05-05 12:20 -22.22502 114.08876 34 ft 19 kts 291°
2026-05-05 12:20 -22.22575 114.08791 36 ft 17 kts 195°
2026-05-05 12:21 -22.22694 114.08778 38 ft 17 kts 185°
2026-05-05 12:21 -22.22817 114.08766 39 ft 17 kts 182°
2026-05-05 12:21 -22.22945 114.08762 39 ft 18 kts 182°
2026-05-05 12:21 -22.23079 114.08755 39 ft 19 kts 183°
2026-05-05 12:22 -22.23215 114.08747 39 ft 20 kts 182°
2026-05-05 12:22 -22.23356 114.08737 39 ft 20 kts 184°
2026-05-05 12:22 -22.23502 114.08724 39 ft 21 kts 185°
2026-05-05 12:22 -22.23653 114.08710 38 ft 21 kts 185°
2026-05-05 12:23 -22.23808 114.08699 37 ft 22 kts 185°
2026-05-05 12:23 -22.23965 114.08688 37 ft 22 kts 183°
2026-05-05 12:23 -22.24124 114.08677 38 ft 22 kts 185°
2026-05-05 12:23 -22.24285 114.08663 39 ft 22 kts 185°
2026-05-05 12:24 -22.24439 114.08653 41 ft 21 kts 184°
2026-05-05 12:24 -22.24566 114.08640 43 ft 12 kts 202°
2026-05-05 12:24 -22.24598 114.08572 44 ft 8 kts 272°
2026-05-05 12:24 -22.24595 114.08501 45 ft 8 kts 271°
2026-05-05 12:25 -22.24616 114.08476 45 ft 3 kts 176°
2026-05-05 12:25 -22.24640 114.08474 46 ft 4 kts 185°
2026-05-05 12:25 -22.24647 114.08473 46 ft 0 kts 185°
2026-05-05 12:25 -22.24648 114.08473 46 ft 0 kts 185°
2026-05-05 12:26 -22.24647 114.08474 46 ft 0 kts 185°
2026-05-05 12:26 -22.24645 114.08474 46 ft 0 kts 185°
2026-05-05 12:26 -22.24643 114.08474 46 ft 0 kts 185°